+ View the NASA Portal
+ Center for Near-Earth Object Studies
IMPORTANT:
The SSD Announcement email list is now available. Major changes are coming in the near future, including possible hostname and/or URL changes. To be notified of such changes, subscribe to this email list.
Please visit
this page
for more details.
Don't show this message again
JPL Small-Body Database Browser
Search:
[
help
]
226658 (2004 FZ141)
Classification:
Main-belt Asteroid
SPK-ID:
2226658
[
Ephemeris
|
Orbit Diagram
|
Orbital Elements
|
Mission Design
|
Physical Parameters
|
Discovery Circumstances
|
Close-Approach Data
]
[ show orbit diagram ]
Orbital Elements at Epoch 2458600.5 (2019-Apr-27.0) TDB
Reference:
JPL 14
(heliocentric ecliptic J2000)
Element
Value
Uncertainty (1-sigma)
Units
e
.1053371358103421
3.7552e-08
a
2.225318633406226
1.1833e-08
au
q
1.990909942297829
8.3609e-08
au
i
4.946290665103047
6.8409e-06
deg
node
2.078817978542077
5.4032e-05
deg
peri
79.64894226296002
6.4374e-05
deg
M
289.5977906165205
3.4835e-05
deg
t
p
2458837.621274885762
(2019-Dec-20.12127489)
0.00011764
TDB
period
1212.513921173982
3.32
9.6711e-06
2.648e-08
d
yr
n
.2969038076292274
2.3681e-09
deg/d
Q
2.459727324514622
1.3079e-08
au
Orbit Determination Parameters
# obs. used (total)
314
data-arc span
8290 days (22.70 yr)
first obs. used
1997-01-16
last obs. used
2019-09-28
planetary ephem.
DE431
SB-pert. ephem.
SB431-N16
condition code
0
norm. resid. RMS
.56968
source
ORB
producer
Otto Matic
solution date
2019-Nov-08 00:55:19
Additional Information
Earth MOID
= 1.01353 au
Jupiter MOID
= 2.71794 au
T_jup
= 3.634
[ show covariance matrix ]
[
Ephemeris
|
Orbit Diagram
|
Orbital Elements
|
Mission Design
|
Physical Parameters
|
Discovery Circumstances
|
Close-Approach Data
]
Physical Parameter Table
Parameter
Symbol
Value
Units
Sigma
Reference
Notes
absolute magnitude
H
17.1
n/a
MPO459997
226658 (2004 FZ141)
Discovered 2004-Mar-27 by LINEAR at Socorro
Reference:
20091202/Numbers.arc
Last Updated:
2009-12-04
[ show close-approach data ]
[
Ephemeris
|
Orbit Diagram
|
Orbital Elements
|
Mission Design
|
Physical Parameters
|
Discovery Circumstances
|
Close-Approach Data
]
2019-Dec-10 18:59 UT
(server date/time)
Site Manager:
Ryan S. Park
Webmaster
:
Alan B. Chamberlin